Location: Lecco
(45.8566°N, 9.3977°E)
Time: 04:01:30
(UTC+02:00)

Transit 4A - Pass Details

Date: 19 August 2020
Orbit: 863 x 982 km, 66.8° (Epoch: 23 September)

Event Time Altitude Azimuth Distance (km) Brightness Sun altitude
Rises 16:02:23 0° 329° (NNW) 3,651 11.0 43.1°
Reaches altitude 10° 16:05:09 10° 338° (NNW) 2,716 10.4 42.7°
Maximum altitude 16:11:02 37° 45° (NE) 1,468 8.9 41.8°
Drops below altitude 10° 16:16:56 10° 112° (ESE) 2,732 10.2 40.9°
Sets 16:19:43 0° 120° (ESE) 3,676 10.8 40.5°
